Year,Month,Day,Hour,Minute,Value (Times are PST for temperature in C)
2011,04,21,06,59,2.20
2011,04,21,07,00,2.20
2011,04,21,07,01,2.20
2011,04,21,07,02,2.20
2011,04,21,07,03,2.20
2011,04,21,07,04,2.20
2011,04,21,07,05,2.20
2011,04,21,07,06,2.20
2011,04,21,07,07,2.20
2011,04,21,07,08,2.20
2011,04,21,07,09,2.30
2011,04,21,07,10,2.30
2011,04,21,07,11,2.30
2011,04,21,07,12,2.30
2011,04,21,07,13,2.30
2011,04,21,07,14,2.30
2011,04,21,07,15,2.30
2011,04,21,07,16,2.30
2011,04,21,07,17,2.30
2011,04,21,07,18,2.30
2011,04,21,07,19,2.30
2011,04,21,07,20,2.30
2011,04,21,07,21,2.30
2011,04,21,07,22,2.40
2011,04,21,07,23,2.40
2011,04,21,07,24,2.40
2011,04,21,07,25,2.40
2011,04,21,07,26,2.40
2011,04,21,07,27,2.40
2011,04,21,07,28,2.30
2011,04,21,07,29,2.30
2011,04,21,07,30,2.30
2011,04,21,07,31,2.30
2011,04,21,07,32,2.40
2011,04,21,07,33,2.40
2011,04,21,07,34,2.40
2011,04,21,07,35,2.40
2011,04,21,07,36,2.40
2011,04,21,07,37,2.40
2011,04,21,07,38,2.40
2011,04,21,07,39,2.40
2011,04,21,07,40,2.40
2011,04,21,07,41,2.50
2011,04,21,07,42,2.60
2011,04,21,07,43,2.60
2011,04,21,07,44,2.60
2011,04,21,07,45,2.60
2011,04,21,07,46,2.60
2011,04,21,07,47,2.70
2011,04,21,07,48,2.70
2011,04,21,07,49,2.70
2011,04,21,07,50,2.70
2011,04,21,07,51,2.80
2011,04,21,07,52,2.80
2011,04,21,07,53,2.80
2011,04,21,07,54,2.90
2011,04,21,07,55,2.90
2011,04,21,07,56,2.90
2011,04,21,07,57,3.00
2011,04,21,07,58,3.00
2011,04,21,07,59,3.10
2011,04,21,08,00,3.20
2011,04,21,08,01,3.20
2011,04,21,08,02,3.30
2011,04,21,08,03,3.30
2011,04,21,08,04,3.40
2011,04,21,08,05,3.30
2011,04,21,08,06,3.30
2011,04,21,08,07,3.30
2011,04,21,08,08,3.40
2011,04,21,08,09,3.40
2011,04,21,08,10,3.40
2011,04,21,08,11,3.40
2011,04,21,08,12,3.50
2011,04,21,08,13,3.50
2011,04,21,08,14,3.50
2011,04,21,08,15,3.60
2011,04,21,08,16,3.60
2011,04,21,08,17,3.60
2011,04,21,08,18,3.70
2011,04,21,08,19,3.70
2011,04,21,08,20,3.80
2011,04,21,08,21,3.80
2011,04,21,08,22,3.90
2011,04,21,08,23,3.90
2011,04,21,08,24,3.90
2011,04,21,08,25,4.00
2011,04,21,08,26,4.10
2011,04,21,08,27,4.10
2011,04,21,08,28,4.20
2011,04,21,08,29,4.20
2011,04,21,08,30,4.30
2011,04,21,08,31,4.30
2011,04,21,08,32,4.30
2011,04,21,08,33,4.40
2011,04,21,08,34,4.50
2011,04,21,08,35,4.60
2011,04,21,08,36,4.70
2011,04,21,08,37,4.80
2011,04,21,08,38,4.80
2011,04,21,08,39,4.90
2011,04,21,08,40,5.00
2011,04,21,08,41,5.10
2011,04,21,08,42,5.10
2011,04,21,08,43,5.10
2011,04,21,08,44,5.20
2011,04,21,08,45,5.20
2011,04,21,08,46,5.30
2011,04,21,08,47,5.30
2011,04,21,08,48,5.40
2011,04,21,08,49,5.40
2011,04,21,08,50,5.50
2011,04,21,08,51,5.50
2011,04,21,08,52,5.60
2011,04,21,08,53,5.60
2011,04,21,08,54,5.60
2011,04,21,08,55,5.60
2011,04,21,08,56,5.70
2011,04,21,08,57,5.70
2011,04,21,08,58,5.70
2011,04,21,08,59,5.70
2011,04,21,09,00,5.70
2011,04,21,09,01,5.70
2011,04,21,09,02,5.80
2011,04,21,09,03,5.80
2011,04,21,09,04,5.80
2011,04,21,09,05,5.80
2011,04,21,09,06,5.80
2011,04,21,09,07,5.80
2011,04,21,09,08,5.80
2011,04,21,09,09,5.80
2011,04,21,09,10,5.80
2011,04,21,09,11,5.80
2011,04,21,09,12,5.80
2011,04,21,09,13,5.90
2011,04,21,09,14,6.00
2011,04,21,09,15,6.10
2011,04,21,09,16,6.20
2011,04,21,09,17,6.30
2011,04,21,09,18,6.40
2011,04,21,09,19,6.50
2011,04,21,09,20,6.50
2011,04,21,09,21,6.60
2011,04,21,09,22,6.60
2011,04,21,09,23,6.60
2011,04,21,09,24,6.60
2011,04,21,09,25,6.60
2011,04,21,09,26,6.60
2011,04,21,09,27,6.60
2011,04,21,09,28,6.60
2011,04,21,09,29,6.60
2011,04,21,09,30,6.60
2011,04,21,09,31,6.60
2011,04,21,09,32,6.60
2011,04,21,09,33,6.70
2011,04,21,09,34,6.70
2011,04,21,09,35,6.70
2011,04,21,09,36,6.70
2011,04,21,09,37,6.70
2011,04,21,09,38,6.80
2011,04,21,09,39,6.80
2011,04,21,09,40,6.80
2011,04,21,09,41,6.80
2011,04,21,09,42,6.80
2011,04,21,09,43,6.80
2011,04,21,09,44,6.80
2011,04,21,09,45,6.80
2011,04,21,09,46,6.80
2011,04,21,09,47,6.80
2011,04,21,09,48,6.80
2011,04,21,09,49,6.80
2011,04,21,09,50,6.90
2011,04,21,09,51,6.90
2011,04,21,09,52,6.90
2011,04,21,09,53,6.90
2011,04,21,09,54,6.90
2011,04,21,09,55,6.90
2011,04,21,09,56,6.90
2011,04,21,09,57,7.00
2011,04,21,09,58,7.10
2011,04,21,09,59,7.10
2011,04,21,10,00,7.10
2011,04,21,10,01,7.10
2011,04,21,10,02,7.20
2011,04,21,10,03,7.20
2011,04,21,10,04,7.20
2011,04,21,10,05,7.20
2011,04,21,10,06,7.30
2011,04,21,10,07,7.30
2011,04,21,10,08,7.40
2011,04,21,10,09,7.30
2011,04,21,10,10,7.30
2011,04,21,10,11,7.30
2011,04,21,10,12,7.30
2011,04,21,10,13,7.30
2011,04,21,10,14,7.40
2011,04,21,10,15,7.40
2011,04,21,10,16,7.40
2011,04,21,10,17,7.40
2011,04,21,10,18,7.40
2011,04,21,10,19,7.40
2011,04,21,10,20,7.30
2011,04,21,10,21,7.40
2011,04,21,10,22,7.40
2011,04,21,10,23,7.40
2011,04,21,10,24,7.40
2011,04,21,10,25,7.40
2011,04,21,10,26,7.40
2011,04,21,10,27,7.50
2011,04,21,10,28,7.50
2011,04,21,10,29,7.60
2011,04,21,10,30,7.60
2011,04,21,10,31,7.60
2011,04,21,10,32,7.50
2011,04,21,10,33,7.40
2011,04,21,10,34,7.40
2011,04,21,10,35,7.50
2011,04,21,10,36,7.60
2011,04,21,10,37,7.60
2011,04,21,10,38,7.70
2011,04,21,10,39,7.80
2011,04,21,10,40,7.90
2011,04,21,10,41,7.90
2011,04,21,10,42,8.00
2011,04,21,10,43,7.90
2011,04,21,10,44,7.90
2011,04,21,10,45,7.80
2011,04,21,10,46,7.80
2011,04,21,10,47,7.80
2011,04,21,10,48,7.80
2011,04,21,10,49,7.80
2011,04,21,10,50,7.80
2011,04,21,10,51,7.80
2011,04,21,10,52,7.90
2011,04,21,10,53,7.90
2011,04,21,10,54,8.00
2011,04,21,10,55,8.00
2011,04,21,10,56,8.10
2011,04,21,10,57,8.20
2011,04,21,10,58,8.20
2011,04,21,10,59,8.20
2011,04,21,11,00,8.20
2011,04,21,11,01,8.20
2011,04,21,11,02,8.30
2011,04,21,11,03,8.20
2011,04,21,11,04,8.20
2011,04,21,11,05,8.20
2011,04,21,11,06,8.10
2011,04,21,11,07,8.10
2011,04,21,11,08,8.10
2011,04,21,11,09,8.20
2011,04,21,11,10,8.30
2011,04,21,11,11,8.30
2011,04,21,11,12,8.30
2011,04,21,11,13,8.40
2011,04,21,11,14,8.40
2011,04,21,11,15,8.40
2011,04,21,11,16,8.40
2011,04,21,11,17,8.40
2011,04,21,11,18,8.40
2011,04,21,11,19,8.40
2011,04,21,11,20,8.40
2011,04,21,11,21,8.50
2011,04,21,11,22,8.50
2011,04,21,11,23,8.60
2011,04,21,11,24,8.70
2011,04,21,11,25,8.80
2011,04,21,11,26,8.80
2011,04,21,11,27,8.90
2011,04,21,11,28,8.90
2011,04,21,11,29,8.90
2011,04,21,11,30,8.80
2011,04,21,11,31,8.80
2011,04,21,11,32,8.80
2011,04,21,11,33,8.80
2011,04,21,11,34,8.80
2011,04,21,11,35,8.90
2011,04,21,11,36,8.90
2011,04,21,11,37,9.00
2011,04,21,11,38,9.10
2011,04,21,11,39,9.20
2011,04,21,11,40,9.10
2011,04,21,11,41,9.00
2011,04,21,11,42,8.90
2011,04,21,11,43,8.90
2011,04,21,11,44,8.90
2011,04,21,11,45,8.90
2011,04,21,11,46,9.00
2011,04,21,11,47,9.10
2011,04,21,11,48,9.20
2011,04,21,11,49,9.20
2011,04,21,11,50,9.30
2011,04,21,11,51,9.30
2011,04,21,11,52,9.30
2011,04,21,11,53,9.20
2011,04,21,11,54,9.10
2011,04,21,11,55,9.10
2011,04,21,11,56,9.00
2011,04,21,11,57,9.10
2011,04,21,11,58,9.10
2011,04,21,11,59,9.00
2011,04,21,12,00,8.90
2011,04,21,12,01,8.90
2011,04,21,12,02,9.00
2011,04,21,12,03,9.10
2011,04,21,12,04,9.10
2011,04,21,12,05,9.30
2011,04,21,12,06,9.40
2011,04,21,12,07,9.60
2011,04,21,12,08,9.60
2011,04,21,12,09,9.70
2011,04,21,12,10,9.70
2011,04,21,12,11,9.70
2011,04,21,12,12,9.70
2011,04,21,12,13,9.60
2011,04,21,12,14,9.60
2011,04,21,12,15,9.60
2011,04,21,12,16,9.70
2011,04,21,12,17,9.70
2011,04,21,12,18,9.70
2011,04,21,12,19,9.70
2011,04,21,12,20,9.70
2011,04,21,12,21,9.70
2011,04,21,12,22,9.60
2011,04,21,12,23,9.50
2011,04,21,12,24,9.50
2011,04,21,12,25,9.50
2011,04,21,12,26,9.50
2011,04,21,12,27,9.50
2011,04,21,12,28,9.60
2011,04,21,12,29,9.60
2011,04,21,12,30,9.50
2011,04,21,12,31,9.50
2011,04,21,12,32,9.50
2011,04,21,12,33,9.60
2011,04,21,12,34,9.60
2011,04,21,12,35,9.60
2011,04,21,12,36,9.60
2011,04,21,12,37,9.60
2011,04,21,12,38,9.60
2011,04,21,12,39,9.60
2011,04,21,12,40,9.60
2011,04,21,12,41,9.60
2011,04,21,12,42,9.70
2011,04,21,12,43,9.70
2011,04,21,12,44,9.70
2011,04,21,12,45,9.70
2011,04,21,12,46,9.70
2011,04,21,12,47,9.70
2011,04,21,12,48,9.70
2011,04,21,12,49,9.70
2011,04,21,12,50,9.70
2011,04,21,12,51,9.60
2011,04,21,12,52,9.60
2011,04,21,12,53,9.60
2011,04,21,12,54,9.50
2011,04,21,12,55,9.40
2011,04,21,12,56,9.30
2011,04,21,12,57,9.30
2011,04,21,12,58,9.40
2011,04,21,12,59,9.40
2011,04,21,13,00,9.50
2011,04,21,13,01,9.60
2011,04,21,13,02,9.60
2011,04,21,13,03,9.70
2011,04,21,13,04,9.70
2011,04,21,13,05,9.70
2011,04,21,13,06,9.80
2011,04,21,13,07,9.90
2011,04,21,13,08,9.90
2011,04,21,13,09,9.90
2011,04,21,13,10,9.80
2011,04,21,13,11,9.60
2011,04,21,13,12,9.60
2011,04,21,13,13,9.70
2011,04,21,13,14,9.70
2011,04,21,13,15,9.80
2011,04,21,13,16,9.80
2011,04,21,13,17,9.80
2011,04,21,13,18,9.90
2011,04,21,13,19,10.00
2011,04,21,13,20,10.00
2011,04,21,13,21,10.10
2011,04,21,13,22,10.20
2011,04,21,13,23,10.20
2011,04,21,13,24,10.30
2011,04,21,13,25,10.30
2011,04,21,13,26,10.30
2011,04,21,13,27,10.20
2011,04,21,13,28,10.10
2011,04,21,13,29,10.00
2011,04,21,13,30,9.90
2011,04,21,13,31,9.80
2011,04,21,13,32,9.80
2011,04,21,13,33,9.90
2011,04,21,13,34,9.80
2011,04,21,13,35,9.70
2011,04,21,13,36,9.70
2011,04,21,13,37,9.60
2011,04,21,13,38,9.70
2011,04,21,13,39,9.80
2011,04,21,13,40,9.80
2011,04,21,13,41,9.80
2011,04,21,13,42,9.80
2011,04,21,13,43,9.80
2011,04,21,13,44,9.80
2011,04,21,13,45,9.80
2011,04,21,13,46,9.80
2011,04,21,13,47,9.90
2011,04,21,13,48,9.90
2011,04,21,13,49,9.90
2011,04,21,13,50,9.80
2011,04,21,13,51,9.90
2011,04,21,13,52,10.00
2011,04,21,13,53,10.00
2011,04,21,13,54,10.00
2011,04,21,13,55,10.10
2011,04,21,13,56,10.10
2011,04,21,13,57,10.10
2011,04,21,13,58,10.10
2011,04,21,13,59,10.10
2011,04,21,14,00,10.10
2011,04,21,14,01,10.00
2011,04,21,14,02,10.00
2011,04,21,14,03,10.00
2011,04,21,14,04,10.00
2011,04,21,14,05,9.90
2011,04,21,14,06,9.90
2011,04,21,14,07,9.80
2011,04,21,14,08,9.90
2011,04,21,14,09,10.00
2011,04,21,14,10,10.10
2011,04,21,14,11,10.10
2011,04,21,14,12,10.20
2011,04,21,14,13,10.20
2011,04,21,14,14,10.30
2011,04,21,14,15,10.40
2011,04,21,14,16,10.40
2011,04,21,14,17,10.30
2011,04,21,14,18,10.30
2011,04,21,14,19,10.30
2011,04,21,14,20,10.40
2011,04,21,14,21,10.50
2011,04,21,14,22,10.50
2011,04,21,14,23,10.60
2011,04,21,14,24,10.70
2011,04,21,14,25,10.80
2011,04,21,14,26,10.70
2011,04,21,14,27,10.70
2011,04,21,14,28,10.60
2011,04,21,14,29,10.60
2011,04,21,14,30,10.70
2011,04,21,14,31,10.70
2011,04,21,14,32,10.70
2011,04,21,14,33,10.70
2011,04,21,14,34,10.70
2011,04,21,14,35,10.60
2011,04,21,14,36,10.40
2011,04,21,14,37,10.20
2011,04,21,14,38,10.20
2011,04,21,14,39,10.20
2011,04,21,14,40,10.20
2011,04,21,14,41,10.30
2011,04,21,14,42,10.30
2011,04,21,14,43,10.30
2011,04,21,14,44,10.40
2011,04,21,14,45,10.40
2011,04,21,14,46,10.40
2011,04,21,14,47,10.40
2011,04,21,14,48,10.40
2011,04,21,14,49,10.30
2011,04,21,14,50,10.30
2011,04,21,14,51,10.30
2011,04,21,14,52,10.40
2011,04,21,14,53,10.50
2011,04,21,14,54,10.60
2011,04,21,14,55,10.70
2011,04,21,14,56,10.50
2011,04,21,14,57,10.40
2011,04,21,14,58,10.30
2011,04,21,14,59,10.30
2011,04,21,15,00,10.30
2011,04,21,15,01,10.30
2011,04,21,15,02,10.30
2011,04,21,15,03,10.30
2011,04,21,15,04,10.30
2011,04,21,15,05,10.20
2011,04,21,15,06,10.20
2011,04,21,15,07,10.10
2011,04,21,15,08,10.00
2011,04,21,15,09,9.90
2011,04,21,15,10,10.00
2011,04,21,15,11,10.00
2011,04,21,15,12,10.00
2011,04,21,15,13,10.10
2011,04,21,15,14,10.30
2011,04,21,15,15,10.40
2011,04,21,15,16,10.50
2011,04,21,15,17,10.50
2011,04,21,15,18,10.50
2011,04,21,15,19,10.50
2011,04,21,15,20,10.40
2011,04,21,15,21,10.40
2011,04,21,15,22,10.40
2011,04,21,15,23,10.30
2011,04,21,15,24,10.30
2011,04,21,15,25,10.30
2011,04,21,15,26,10.20
2011,04,21,15,27,10.00
2011,04,21,15,28,9.90
2011,04,21,15,29,9.90
2011,04,21,15,30,9.90
2011,04,21,15,31,10.00
2011,04,21,15,32,10.00
2011,04,21,15,33,10.00
2011,04,21,15,34,10.10
2011,04,21,15,35,10.10
2011,04,21,15,36,10.10
2011,04,21,15,37,10.10
2011,04,21,15,38,10.10
2011,04,21,15,39,10.20
2011,04,21,15,40,10.20
2011,04,21,15,41,10.20
2011,04,21,15,42,10.20
2011,04,21,15,43,10.10
2011,04,21,15,44,10.10
2011,04,21,15,45,10.10
2011,04,21,15,46,10.10
2011,04,21,15,47,10.10
2011,04,21,15,48,10.10
2011,04,21,15,49,10.10
2011,04,21,15,50,10.20
2011,04,21,15,51,10.30
2011,04,21,15,52,10.30
2011,04,21,15,53,10.30
2011,04,21,15,54,10.30
2011,04,21,15,55,10.30
2011,04,21,15,56,10.30
2011,04,21,15,57,10.30
2011,04,21,15,58,10.40
2011,04,21,15,59,10.50
2011,04,21,16,00,10.50
2011,04,21,16,01,10.60
2011,04,21,16,02,10.60
2011,04,21,16,03,10.50
2011,04,21,16,04,10.50
2011,04,21,16,05,10.50
2011,04,21,16,06,10.50
2011,04,21,16,07,10.50
2011,04,21,16,08,10.60
2011,04,21,16,09,10.50
2011,04,21,16,10,10.40
2011,04,21,16,11,10.40
2011,04,21,16,12,10.40
2011,04,21,16,13,10.30
2011,04,21,16,14,10.30
2011,04,21,16,15,10.30
2011,04,21,16,16,10.20
2011,04,21,16,17,10.20
2011,04,21,16,18,10.20
2011,04,21,16,19,10.20
2011,04,21,16,20,10.30
2011,04,21,16,21,10.30
2011,04,21,16,22,10.40
2011,04,21,16,23,10.40
2011,04,21,16,24,10.40
2011,04,21,16,25,10.50
2011,04,21,16,26,10.50
2011,04,21,16,27,10.60
2011,04,21,16,28,10.70
2011,04,21,16,29,10.80
2011,04,21,16,30,10.90
2011,04,21,16,31,10.90
2011,04,21,16,32,10.80
2011,04,21,16,33,10.80
2011,04,21,16,34,10.90
2011,04,21,16,35,10.90
2011,04,21,16,36,10.80
2011,04,21,16,37,10.70
2011,04,21,16,38,10.70
2011,04,21,16,39,10.50
2011,04,21,16,40,10.50
2011,04,21,16,41,10.60
2011,04,21,16,42,10.60
2011,04,21,16,43,10.70
2011,04,21,16,44,10.80
2011,04,21,16,45,10.90
2011,04,21,16,46,11.00
2011,04,21,16,47,11.10
2011,04,21,16,48,11.00
2011,04,21,16,49,10.90
2011,04,21,16,50,10.80
2011,04,21,16,51,10.80
2011,04,21,16,52,10.90
2011,04,21,16,53,10.90
2011,04,21,16,54,11.00
2011,04,21,16,55,11.00
2011,04,21,16,56,11.00
2011,04,21,16,57,10.90
2011,04,21,16,58,10.80
2011,04,21,16,59,10.80
2011,04,21,17,00,10.70
2011,04,21,17,01,10.80
2011,04,21,17,02,10.80
2011,04,21,17,03,10.80
2011,04,21,17,04,10.90
2011,04,21,17,05,10.90
2011,04,21,17,06,10.90
2011,04,21,17,07,10.90
2011,04,21,17,08,10.90
2011,04,21,17,09,10.80
2011,04,21,17,10,10.80
2011,04,21,17,11,10.80
2011,04,21,17,12,10.80
2011,04,21,17,13,10.80
2011,04,21,17,14,10.90
2011,04,21,17,15,10.80
2011,04,21,17,16,10.80
2011,04,21,17,17,10.80
2011,04,21,17,18,10.80
2011,04,21,17,19,10.80
2011,04,21,17,20,10.70
2011,04,21,17,21,10.70
2011,04,21,17,22,10.70
2011,04,21,17,23,10.70
2011,04,21,17,24,10.80
2011,04,21,17,25,10.80
2011,04,21,17,26,10.80
2011,04,21,17,27,10.80
2011,04,21,17,28,10.80
2011,04,21,17,29,10.80
2011,04,21,17,30,10.80
2011,04,21,17,31,10.80
2011,04,21,17,32,10.80
2011,04,21,17,33,10.80
2011,04,21,17,34,10.80
2011,04,21,17,35,10.80
2011,04,21,17,36,10.80
2011,04,21,17,37,10.80
2011,04,21,17,38,10.70
2011,04,21,17,39,10.70
2011,04,21,17,40,10.70
2011,04,21,17,41,10.70
2011,04,21,17,42,10.70
2011,04,21,17,43,10.70
2011,04,21,17,44,10.60
2011,04,21,17,45,10.60
2011,04,21,17,46,10.70
2011,04,21,17,47,10.70
2011,04,21,17,48,10.60
2011,04,21,17,49,10.60
2011,04,21,17,50,10.60
2011,04,21,17,51,10.60
2011,04,21,17,52,10.70
2011,04,21,17,53,10.70
2011,04,21,17,54,10.70
2011,04,21,17,55,10.80
2011,04,21,17,56,10.80
2011,04,21,17,57,10.80
2011,04,21,17,58,10.80
2011,04,21,17,59,10.80
2011,04,21,18,00,10.90
2011,04,21,18,01,10.80
2011,04,21,18,02,10.80
2011,04,21,18,03,10.90
2011,04,21,18,04,10.90
2011,04,21,18,05,10.90
2011,04,21,18,06,10.90
2011,04,21,18,07,10.90
2011,04,21,18,08,10.90
2011,04,21,18,09,10.90
2011,04,21,18,10,10.90
2011,04,21,18,11,10.80
2011,04,21,18,12,10.80
2011,04,21,18,13,10.80
2011,04,21,18,14,10.90
2011,04,21,18,15,10.90
2011,04,21,18,16,10.90
2011,04,21,18,17,10.90
2011,04,21,18,18,10.90
2011,04,21,18,19,10.80
2011,04,21,18,20,10.80
2011,04,21,18,21,10.80
2011,04,21,18,22,10.80
2011,04,21,18,23,10.70
2011,04,21,18,24,10.70
2011,04,21,18,25,10.70
2011,04,21,18,26,10.70
2011,04,21,18,27,10.70
2011,04,21,18,28,10.70
2011,04,21,18,29,10.60
2011,04,21,18,30,10.60
2011,04,21,18,31,10.60
2011,04,21,18,32,10.60
2011,04,21,18,33,10.60
2011,04,21,18,34,10.60
2011,04,21,18,35,10.60
2011,04,21,18,36,10.50
2011,04,21,18,37,10.50
2011,04,21,18,38,10.40
2011,04,21,18,39,10.40
2011,04,21,18,40,10.40
2011,04,21,18,41,10.40
2011,04,21,18,42,10.50
2011,04,21,18,43,10.60
2011,04,21,18,44,10.60
2011,04,21,18,45,10.60
2011,04,21,18,46,10.50
2011,04,21,18,47,10.40
2011,04,21,18,48,10.40
2011,04,21,18,49,10.30
2011,04,21,18,50,10.20
2011,04,21,18,51,10.10
2011,04,21,18,52,10.10
2011,04,21,18,53,10.00
2011,04,21,18,54,9.90
2011,04,21,18,55,9.90
2011,04,21,18,56,9.80
2011,04,21,18,57,9.80
2011,04,21,18,58,9.80
2011,04,21,18,59,9.80
2011,04,21,19,00,9.70
2011,04,21,19,01,9.70
2011,04,21,19,02,9.70
2011,04,21,19,03,9.60
2011,04,21,19,04,9.60
2011,04,21,19,05,9.60
2011,04,21,19,06,9.50
2011,04,21,19,07,9.50
2011,04,21,19,08,9.40
2011,04,21,19,09,9.40
2011,04,21,19,10,9.40
2011,04,21,19,11,9.30
2011,04,21,19,12,9.30
2011,04,21,19,13,9.20
2011,04,21,19,14,9.20
2011,04,21,19,15,9.10
2011,04,21,19,16,9.00
2011,04,21,19,17,9.00
2011,04,21,19,18,8.90
2011,04,21,19,19,8.80
2011,04,21,19,20,8.80
2011,04,21,19,21,8.70
2011,04,21,19,22,8.60
2011,04,21,19,23,8.50
2011,04,21,19,24,8.40
2011,04,21,19,25,8.30
2011,04,21,19,26,8.20
2011,04,21,19,27,8.20
2011,04,21,19,28,8.10
2011,04,21,19,29,8.00
2011,04,21,19,30,7.90
2011,04,21,19,31,7.90
2011,04,21,19,32,7.80
2011,04,21,19,33,7.80
2011,04,21,19,34,7.70
2011,04,21,19,35,7.60
2011,04,21,19,36,7.60
2011,04,21,19,37,7.50
2011,04,21,19,38,7.50
2011,04,21,19,39,7.50
2011,04,21,19,40,7.40
2011,04,21,19,41,7.40
2011,04,21,19,42,7.40
2011,04,21,19,43,7.30
2011,04,21,19,44,7.30
2011,04,21,19,45,7.30
2011,04,21,19,46,7.30
2011,04,21,19,47,7.30
2011,04,21,19,48,7.30
2011,04,21,19,49,7.30
2011,04,21,19,50,7.40
2011,04,21,19,51,7.40
2011,04,21,19,52,7.40
2011,04,21,19,53,7.40
2011,04,21,19,54,7.50
2011,04,21,19,55,7.50
2011,04,21,19,56,7.40
2011,04,21,19,57,7.40
2011,04,21,19,58,7.40
2011,04,21,19,59,7.40
2011,04,21,20,00,7.40
2011,04,21,20,01,7.40
2011,04,21,20,02,7.40
2011,04,21,20,03,7.40
2011,04,21,20,04,7.40
2011,04,21,20,05,7.40
2011,04,21,20,06,7.40
2011,04,21,20,07,7.40
2011,04,21,20,08,7.40
2011,04,21,20,09,7.40
2011,04,21,20,10,7.50
2011,04,21,20,11,7.50
2011,04,21,20,12,7.60
2011,04,21,20,13,7.60
2011,04,21,20,14,7.60
2011,04,21,20,15,7.60
2011,04,21,20,16,7.50
2011,04,21,20,17,7.50
2011,04,21,20,18,7.50
2011,04,21,20,19,7.40
2011,04,21,20,20,7.40
2011,04,21,20,21,7.40
2011,04,21,20,22,7.40
2011,04,21,20,23,7.30
2011,04,21,20,24,7.30
2011,04,21,20,25,7.30
2011,04,21,20,26,7.30
2011,04,21,20,27,7.30
2011,04,21,20,28,7.20
2011,04,21,20,29,7.20
2011,04,21,20,30,7.20
2011,04,21,20,31,7.20
2011,04,21,20,32,7.20
2011,04,21,20,33,7.20
2011,04,21,20,34,7.20
2011,04,21,20,35,7.10
2011,04,21,20,36,7.10
2011,04,21,20,37,7.10
2011,04,21,20,38,7.10
2011,04,21,20,39,7.10
2011,04,21,20,40,7.10
2011,04,21,20,41,7.10
2011,04,21,20,42,7.10
2011,04,21,20,43,7.10
2011,04,21,20,44,7.10
2011,04,21,20,45,7.10
2011,04,21,20,46,7.10
2011,04,21,20,47,7.10
2011,04,21,20,48,7.10
2011,04,21,20,49,7.20
2011,04,21,20,50,7.20
2011,04,21,20,51,7.20
2011,04,21,20,52,7.20
2011,04,21,20,53,7.20
2011,04,21,20,54,7.20
2011,04,21,20,55,7.20
2011,04,21,20,56,7.20
2011,04,21,20,57,7.20
2011,04,21,20,58,7.20
2011,04,21,20,59,7.20
2011,04,21,21,00,7.30
2011,04,21,21,01,7.30
2011,04,21,21,02,7.30
2011,04,21,21,03,7.40
2011,04,21,21,04,7.50
2011,04,21,21,05,7.60
2011,04,21,21,06,7.60
2011,04,21,21,07,7.70
2011,04,21,21,08,7.70
2011,04,21,21,09,7.70
2011,04,21,21,10,7.70
2011,04,21,21,11,7.70
2011,04,21,21,12,7.70
2011,04,21,21,13,7.70
2011,04,21,21,14,7.70
2011,04,21,21,15,7.70
2011,04,21,21,16,7.70
2011,04,21,21,17,7.70
2011,04,21,21,18,7.60
2011,04,21,21,19,7.60
2011,04,21,21,20,7.50
2011,04,21,21,21,7.50
2011,04,21,21,22,7.50
2011,04,21,21,23,7.50
2011,04,21,21,24,7.60
2011,04,21,21,25,7.60
2011,04,21,21,26,7.70
2011,04,21,21,27,7.70
2011,04,21,21,28,7.80
2011,04,21,21,29,7.80
2011,04,21,21,30,7.80
2011,04,21,21,31,7.80
2011,04,21,21,32,7.80
2011,04,21,21,33,7.80
2011,04,21,21,34,7.70
2011,04,21,21,35,7.70
2011,04,21,21,36,7.70
2011,04,21,21,37,7.70
2011,04,21,21,38,7.70
2011,04,21,21,39,7.70
2011,04,21,21,40,7.70
2011,04,21,21,41,7.80
2011,04,21,21,42,7.90
2011,04,21,21,43,7.90
2011,04,21,21,44,8.00
2011,04,21,21,45,8.10
2011,04,21,21,46,8.10
2011,04,21,21,47,8.10
2011,04,21,21,48,8.20
2011,04,21,21,49,8.20
2011,04,21,21,50,8.20
2011,04,21,21,51,8.20
2011,04,21,21,52,8.20
2011,04,21,21,53,8.20
2011,04,21,21,54,8.20
2011,04,21,21,55,8.20
2011,04,21,21,56,8.30
2011,04,21,21,57,8.30
2011,04,21,21,58,8.30
2011,04,21,21,59,8.30
2011,04,21,22,00,8.30
2011,04,21,22,01,8.30
2011,04,21,22,02,8.30
2011,04,21,22,03,8.30
2011,04,21,22,04,8.30
2011,04,21,22,05,8.30
2011,04,21,22,06,8.30
2011,04,21,22,07,8.30
2011,04,21,22,08,8.30
2011,04,21,22,09,8.30
2011,04,21,22,10,8.30
2011,04,21,22,11,8.30
2011,04,21,22,12,8.30
2011,04,21,22,13,8.30
2011,04,21,22,14,8.30
2011,04,21,22,15,8.30
2011,04,21,22,16,8.30
2011,04,21,22,17,8.30
2011,04,21,22,18,8.20
2011,04,21,22,19,8.20
2011,04,21,22,20,8.20
2011,04,21,22,21,8.20
2011,04,21,22,22,8.20
2011,04,21,22,23,8.20
2011,04,21,22,24,8.20
2011,04,21,22,25,8.20
2011,04,21,22,26,8.20
2011,04,21,22,27,8.20
2011,04,21,22,28,8.20
2011,04,21,22,29,8.20
2011,04,21,22,30,8.20
2011,04,21,22,31,8.20
2011,04,21,22,32,8.20
2011,04,21,22,33,8.20
2011,04,21,22,34,8.20
2011,04,21,22,35,8.20
2011,04,21,22,36,8.20
2011,04,21,22,37,8.20
2011,04,21,22,38,8.20
2011,04,21,22,39,8.20
2011,04,21,22,40,8.20
2011,04,21,22,41,8.20
2011,04,21,22,42,8.20
2011,04,21,22,43,8.20
2011,04,21,22,44,8.20
2011,04,21,22,45,8.20
2011,04,21,22,46,8.20
2011,04,21,22,47,8.20
2011,04,21,22,48,8.10
2011,04,21,22,49,8.10
2011,04,21,22,50,8.10
2011,04,21,22,51,8.10
2011,04,21,22,52,8.10
2011,04,21,22,53,8.10
2011,04,21,22,54,8.00
2011,04,21,22,55,8.00
2011,04,21,22,56,8.00
2011,04,21,22,57,8.00
2011,04,21,22,58,8.00
2011,04,21,22,59,7.90
2011,04,21,23,00,7.90
2011,04,21,23,01,7.90
2011,04,21,23,02,7.90
2011,04,21,23,03,7.90
2011,04,21,23,04,7.90
2011,04,21,23,05,7.90
2011,04,21,23,06,7.90
2011,04,21,23,07,7.90
2011,04,21,23,08,7.90
2011,04,21,23,09,7.90
2011,04,21,23,10,7.90
2011,04,21,23,11,7.90
2011,04,21,23,12,7.90
2011,04,21,23,13,7.80
2011,04,21,23,14,7.80
2011,04,21,23,15,7.80
2011,04,21,23,16,7.80
2011,04,21,23,17,7.80
2011,04,21,23,18,7.80
2011,04,21,23,19,7.80
2011,04,21,23,20,7.80
2011,04,21,23,21,7.70
2011,04,21,23,22,7.70
2011,04,21,23,23,7.70
2011,04,21,23,24,7.70
2011,04,21,23,25,7.70
2011,04,21,23,26,7.70
2011,04,21,23,27,7.70
2011,04,21,23,28,7.70
2011,04,21,23,29,7.60
2011,04,21,23,30,7.60
2011,04,21,23,31,7.50
2011,04,21,23,32,7.40
2011,04,21,23,33,7.40
2011,04,21,23,34,7.30
2011,04,21,23,35,7.20
2011,04,21,23,36,7.10
2011,04,21,23,37,7.10
2011,04,21,23,38,7.00
2011,04,21,23,39,6.90
2011,04,21,23,40,6.90
2011,04,21,23,41,6.80
2011,04,21,23,42,6.80
2011,04,21,23,43,6.70
2011,04,21,23,44,6.70
2011,04,21,23,45,6.60
2011,04,21,23,46,6.60
2011,04,21,23,47,6.50
2011,04,21,23,48,6.50
2011,04,21,23,49,6.40
2011,04,21,23,50,6.40
2011,04,21,23,51,6.40
2011,04,21,23,52,6.30
2011,04,21,23,53,6.30
2011,04,21,23,54,6.20
2011,04,21,23,55,6.20
2011,04,21,23,56,6.10
2011,04,21,23,57,6.10
2011,04,21,23,58,6.00
2011,04,21,23,59,6.00
